DW4273 Weather Reports


Display with metric or nautical units.
time (UTC)temp
F
wind
direction
speed
MPH
gust
MPH
rain 1hr
in
rain 24hr
in
rain mn
in
humidity
%
barometer
mb
20260903053016 81 248 8.0 13.0 0.00 0.00 0.00 77 1013.4
20260903052016 81 225 7.0 10.0 0.00 0.00 0.00 77 1013.2
20260903051016 81 225 8.0 11.0 0.00 0.00 0.00 77 1013.1
20260903050036 81 225 8.0 11.0 0.00 0.00 0.00 77 1012.9
20260903045016 81 225 8.0 13.0 0.00 0.00 0.00 78 1012.7
20260903044016 81 225 8.0 11.0 0.00 0.00 0.00 77 1012.7
20260903043016 81 225 7.0 11.0 0.00 0.00 0.00 77 1012.6
20260903042016 81 225 7.0 9.0 0.00 0.00 0.00 76 1012.5
20260903041016 81 225 8.0 12.0 0.00 0.00 0.00 76 1012.3
20260903040016 81 225 7.0 11.0 0.00 0.00 0.00 76 1012.4
20260903035015 81 225 7.0 12.0 0.00 0.00 0.00 76 1012.1
20260903034035 81 225 7.0 9.0 0.00 0.00 0.00 75 1012.0
20260903033036 82 225 8.0 11.0 0.00 0.00 0.00 75 1011.9
20260903032015 81 203 8.0 12.0 0.00 0.00 0.00 75 1012.1
20260903031016 82 203 7.0 10.0 0.00 0.00 0.00 74 1012.3
20260903030055 82 203 7.0 10.0 0.00 0.00 0.00 74 1012.6
20260903025605 82 225 7.0 9.0 0.00 0.00 0.00 74 1012.6
20260903025016 82 203 7.0 9.0 0.00 0.00 0.00 74 1012.7
20260903024016 82 203 6.0 9.0 0.00 0.00 0.00 74 1012.8
20260903023015 82 203 6.0 8.0 0.00 0.00 0.00 73 1012.8
20260903022016 82 203 6.0 9.0 0.00 0.00 0.00 73 1012.9
20260903021016 82 203 6.0 8.0 0.00 0.00 0.00 72 1012.9
20260903020015 82 203 5.0 8.0 0.00 0.00 0.00 72 1012.9
20260903015036 82 203 5.0 8.0 0.00 0.00 0.00 72 1013.0
20260903014016 82 203 5.0 6.0 0.00 0.00 0.00 73 1012.9
20260903013015 82 203 5.0 7.0 0.00 0.00 0.00 73 1012.9
20260903012036 82 225 4.0 6.0 0.00 0.00 0.00 74 1013.0
20260903011036 82 225 3.0 5.0 0.00 0.00 0.00 72 1012.8
20260903010016 83 203 5.0 7.0 0.00 0.00 0.00 73 1012.8
20260903005056 82 225 5.0 7.0 0.00 0.00 0.00 74 1012.6
20260903004016 82 225 4.0 6.0 0.00 0.00 0.00 73 1012.5
20260903003036 84 225 4.0 5.0 0.00 0.00 0.00 71 1012.5
20260903002016 84 203 4.0 6.0 0.00 0.00 0.00 70 1012.5
20260903001036 84 203 4.0 6.0 0.00 0.00 0.00 71 1012.4
20260903000016 85 225 3.0 4.0 0.00 0.00 0.00 69 1012.4
20260902235016 86 248 3.0 4.0 0.00 0.00 0.00 67 1012.6
20260902234036 87 225 3.0 5.0 0.00 0.00 0.00 65 1012.5
20260902233016 88 203 4.0 5.0 0.00 0.00 0.00 63 1012.4
20260902232036 88 203 5.0 7.0 0.00 0.00 0.00 62 1012.4
20260902231036 89 203 6.0 9.0 0.00 0.00 0.00 61 1012.5
20260902230016 89 203 6.0 9.0 0.00 0.00 0.00 61 1012.5
20260902225036 89 225 6.0 10.0 0.00 0.00 0.00 61 1012.5
20260902224056 90 225 7.0 11.0 0.00 0.00 0.00 60 1012.4
20260902223036 90 225 8.0 11.0 0.00 0.00 0.00 59 1012.4
20260902222016 89 225 7.0 9.0 0.00 0.00 0.00 60 1012.4
20260902221016 90 203 7.0 11.0 0.00 0.00 0.00 60 1012.4
20260902220016 91 203 7.0 12.0 0.00 0.00 0.00 58 1012.5
20260902215016 91 225 8.0 12.0 0.00 0.00 0.00 57 1012.6
20260902214016 91 248 8.0 11.0 0.00 0.00 0.00 55 1012.7
20260902213036 92 225 6.0 9.0 0.00 0.00 0.00 56 1012.8
20260902212016 92 225 9.0 14.0 0.00 0.00 0.00 53 1012.7
20260902211016 92 248 10.0 14.0 0.00 0.00 0.00 53 1013.0
20260902210016 93 203 10.0 19.0 0.00 0.00 0.00 52 1013.1
20260902205016 93 225 9.0 16.0 0.00 0.00 0.00 54 1013.2
20260902204016 93 225 8.0 11.0 0.00 0.00 0.00 55 1013.2
20260902203016 93 248 10.0 14.0 0.00 0.00 0.00 54 1013.3
20260902202016 93 225 10.0 15.0 0.00 0.00 0.00 52 1013.4
20260902201016 93 248 10.0 15.0 0.00 0.00 0.00 54 1013.4
20260902200036 93 225 11.0 17.0 0.00 0.00 0.00 51 1013.4
20260902195036 92 248 11.0 14.0 0.00 0.00 0.00 52 1013.5
20260902194547 93 248 9.0 11.0 0.00 0.00 0.00 52 1013.6
20260902193516 93 225 8.0 14.0 0.00 0.00 0.00 53 1013.6
20260902192516 93 248 7.0 11.0 0.00 0.00 0.00 53 1013.7
20260902191536 93 225 9.0 15.0 0.00 0.00 0.00 54 1013.9
20260902190556 93 248 7.0 11.0 0.00 0.00 0.00 54 1014.0
20260902185516 93 225 10.0 15.0 0.00 0.00 0.00 52 1014.1
20260902184536 92 225 9.0 13.0 0.00 0.00 0.00 55 1014.2
20260902183516 93 203 8.0 12.0 0.00 0.00 0.00 53 1014.2
20260902182516 92 203 8.0 16.0 0.00 0.00 0.00 55 1014.3
20260902181536 92 225 6.0 10.0 0.00 0.00 0.00 55 1014.4
20260902180536 92 203 8.0 11.0 0.00 0.00 0.00 58 1014.6
20260902175516 92 248 6.0 11.0 0.00 0.00 0.00 57 1014.6
20260902174516 92 225 4.0 9.0 0.00 0.00 0.00 60 1014.8
20260902173516 91 248 5.0 8.0 0.00 0.00 0.00 60 1015.0
20260902172516 91 203 5.0 8.0 0.00 0.00 0.00 59 1015.1
20260902171516 92 225 6.0 11.0 0.00 0.00 0.00 60 1015.3
20260902170516 91 203 2.0 6.0 0.00 0.00 0.00 58 1015.2
20260902165516 91 248 4.0 7.0 0.00 0.00 0.00 60 1015.2
20260902164516 90 270 2.0 5.0 0.00 0.00 0.00 61 1015.3
20260902163536 90 270 3.0 7.0 0.00 0.00 0.00 62 1015.3
20260902162536 89 270 1.0 4.0 0.00 0.00 0.00 61 1015.5
20260902161516 89 293 2.0 5.0 0.00 0.00 0.00 63 1015.4
20260902160516 89 315 1.0 4.0 0.00 0.00 0.00 64 1015.4
20260902155516 88 293 2.0 4.0 0.00 0.00 0.00 66 1015.5
20260902154516 88 203 3.0 7.0 0.00 0.00 0.00 67 1015.5
20260902153516 87 225 2.0 4.0 0.00 0.00 0.00 69 1015.6
20260902152516 86 248 4.0 8.0 0.00 0.00 0.00 68 1015.6
20260902151537 86 248 4.0 7.0 0.00 0.00 0.00 72 1015.7
20260902150516 85 225 4.0 6.0 0.00 0.00 0.00 72 1015.6
20260902145516 84 225 4.0 7.0 0.00 0.00 0.00 73 1015.6
20260902144516 84 225 4.0 6.0 0.00 0.00 0.00 74 1015.6
20260902143617 83 225 5.0 8.0 0.00 0.00 0.00 76 1015.4
20260902142516 83 225 6.0 12.0 0.00 0.00 0.00 76 1015.4
20260902141556 82 225 6.0 9.0 0.00 0.00 0.00 77 1015.3
20260902140536 81 225 5.0 8.0 0.00 0.00 0.00 80 1015.2
20260902135516 81 225 6.0 10.0 0.00 0.00 0.00 81 1015.2
20260902134517 80 225 5.0 8.0 0.00 0.00 0.00 83 1015.1
20260902133516 79 225 6.0 7.0 0.00 0.00 0.00 86 1015.1
20260902132516 78 225 5.0 7.0 0.00 0.00 0.00 88 1015.1
20260902131536 77 248 4.0 6.0 0.00 0.00 0.00 90 1015.2
20260902130516 76 225 4.0 8.0 0.00 0.00 0.00 91 1015.1
20260902125536 76 225 5.0 8.0 0.00 0.00 0.00 91 1015.2
20260902124516 75 225 4.0 7.0 0.00 0.00 0.00 93 1015.2
20260902123556 75 203 3.0 6.0 0.00 0.00 0.00 93 1015.2
20260902122516 74 203 5.0 7.0 0.00 0.00 0.00 94 1015.1
20260902121516 74 203 4.0 6.0 0.00 0.00 0.00 94 1015.1
20260902120516 73 0.0 2.0 0.00 0.00 0.00 94 1015.0
20260902115516 73 0.0 0.0 0.00 0.00 0.00 94 1014.9
20260902114516 72 0.0 0.0 0.00 0.00 0.00 94 1014.8
20260902113536 72 0.0 0.0 0.00 0.00 0.00 94 1014.9
20260902112536 72 0.0 0.0 0.00 0.00 0.00 94 1014.7
20260902111516 72 0.0 0.0 0.00 0.00 0.00 93 1014.6
20260902110516 73 0.0 0.0 0.00 0.00 0.00 94 1014.4
20260902105516 73 0.0 2.0 0.00 0.00 0.00 94 1014.4
20260902104516 72 0.0 0.0 0.00 0.00 0.00 94 1014.5
20260902103516 73 0.0 2.0 0.00 0.00 0.00 94 1014.3
20260902102516 72 0.0 0.0 0.00 0.00 0.00 94 1014.3
20260902101536 72 0.0 0.0 0.00 0.00 0.00 94 1014.1
20260902100516 72 0.0 0.0 0.00 0.00 0.00 94 1014.3
20260902095536 72 0.0 0.0 0.00 0.00 0.00 93 1014.3
20260902094517 73 0.0 0.0 0.00 0.00 0.00 93 1014.4
20260902093516 73 0.0 0.0 0.00 0.00 0.00 93 1014.6
20260902092517 73 0.0 0.0 0.00 0.00 0.00 93 1014.7
20260902091538 73 0.0 0.0 0.00 0.00 0.00 93 1014.7
20260902090516 74 0.0 0.0 0.00 0.00 0.00 94 1014.7
20260902085516 73 0.0 2.0 0.00 0.00 0.00 94 1014.8
20260902084556 74 0.0 1.0 0.00 0.00 0.00 94 1014.8
20260902083516 74 203 1.0 4.0 0.00 0.00 0.00 94 1014.6
20260902082516 74 0.0 0.0 0.00 0.00 0.00 94 1014.5
20260902081517 73 0.0 2.0 0.00 0.00 0.00 94 1014.5
20260902080516 72 0.0 0.0 0.00 0.00 0.00 94 1014.5
20260902075516 72 0.0 0.0 0.00 0.00 0.00 94 1014.5
20260902074516 71 0.0 0.0 0.00 0.00 0.00 93 1014.4
20260902073516 72 0.0 0.0 0.00 0.00 0.00 93 1014.3
20260902072516 72 0.0 0.0 0.00 0.00 0.00 94 1014.5
20260902071556 71 0.0 0.0 0.00 0.00 0.00 93 1014.3
20260902070516 72 0.0 0.0 0.00 0.00 0.00 93 1014.5
20260902065516 72 0.0 0.0 0.00 0.00 0.00 93 1014.5
20260902064501 72 0.0 0.0 0.00 0.00 0.00 93 1014.6
20260902064122 72 0.0 0.0 0.00 0.00 0.00 93 1014.6
20260902063516 72 0.0 0.0 0.00 0.00 0.00 93 1014.6
20260902062556 72 0.0 0.0 0.00 0.00 0.00 92 1014.6
20260902061516 72 0.0 0.0 0.00 0.00 0.00 93 1014.6
20260902060536 72 0.0 0.0 0.00 0.00 0.00 93 1014.7
20260902055536 72 0.0 0.0 0.00 0.00 0.00 93 1014.6
20260902054516 72 0.0 0.0 0.00 0.00 0.00 93 1014.6
20260902053516 72 0.0 0.0 0.00 0.00 0.00 93 1014.4